Tracking 27428 objects as of 31-May-2023
HD Live streaming from Space Station
objects crossing your sky now

COSMOS 1741 DEB *

Track COSMOS 1741 DEB * now!
10-day predictions


NORAD ID: 17843
Int'l Code: 1986-030D
Perigee: 739.9 km
Apogee: 759.2 km
Inclination: 74.0 °
Period: 99.7 minutes
Semi major axis: 7120 km
RCS: 0.0078 m2 (small)
Launch date: April 17, 1986
Source: Commonwealth of Independent States (former USSR) (CIS)
Launch site: PLESETSK MISSILE AND SPACE COMPLEX (PKMTR)

Note: This is SATELLITE DEBRIS
Your satellite tracking list
Your tracking list is empty




NASA's NSSDC Master Catalog

Two Line Element Set (TLE):
1 17843U 86030D   23150.79168877  .00001066  00000-0  31363-3 0  9996
2 17843  74.0311 155.2291 0013587 168.5896 191.5572 14.44888737943924
Source of the keplerian elements: AFSPC